Previsão horária em Abbey

Hoje, 18 Abril, Domingo

Tempo Temperatura Precipitação Vento Pressão Humidade
00:00 +4°C° 0.7 mm 6 m/s 706 mmHg 76%
01:00 +3°C° 0.7 mm 6 m/s 706 mmHg 84%
02:00 +2°C° 0.7 mm 5 m/s 706 mmHg 92%
03:00 +1°C° 0.6 mm 6 m/s 707 mmHg 89%
04:00 +1°C° 0.6 mm 6 m/s 707 mmHg 86%
05:00 -1°C° 0 mm 7 m/s 708 mmHg 82%
06:00 -1°C° 0.1 mm 7 m/s 708 mmHg 77%
07:00 -1°C° 0.1 mm 7 m/s 709 mmHg 72%
08:00 -1°C° 0.1 mm 7 m/s 709 mmHg 67%
09:00 0°C° 0 mm 7 m/s 709 mmHg 61%
10:00 0°C° 0 mm 7 m/s 710 mmHg 55%
11:00 0°C° 0 mm 7 m/s 710 mmHg 49%
12:00 +2°C° 0 mm 7 m/s 710 mmHg 45%
13:00 +3°C° 0 mm 7 m/s 710 mmHg 42%
14:00 +3°C° 0 mm 7 m/s 710 mmHg 38%
15:00 +3°C° 0 mm 6 m/s 710 mmHg 37%
16:00 +3°C° 0 mm 6 m/s 710 mmHg 36%
17:00 +3°C° 0 mm 6 m/s 710 mmHg 35%
18:00 +2°C° 0 mm 6 m/s 710 mmHg 39%
19:00 +1°C° 0 mm 6 m/s 710 mmHg 43%
20:00 +1°C° 0 mm 6 m/s 710 mmHg 47%
21:00 0°C° 0 mm 5 m/s 711 mmHg 50%
22:00 -1°C° 0 mm 4 m/s 711 mmHg 54%
23:00 0°C° 0 mm 3 m/s 711 mmHg 58%

Amanhã, 19 Abril, Segunda-feira

Tempo Temperatura Precipitação Vento Pressão Humidade
00:00 -1°C° 0 mm 3 m/s 711 mmHg 61%
01:00 -1°C° 0 mm 3 m/s 711 mmHg 64%
02:00 -1°C° 0 mm 3 m/s 711 mmHg 67%
03:00 -2°C° 0 mm 3 m/s 711 mmHg 69%
04:00 -2°C° 0 mm 3 m/s 710 mmHg 71%
05:00 -3°C° 0 mm 4 m/s 710 mmHg 72%
06:00 -2°C° 0 mm 4 m/s 710 mmHg 67%
07:00 -2°C° 0 mm 5 m/s 710 mmHg 62%
08:00 -2°C° 0 mm 6 m/s 710 mmHg 57%
09:00 -2°C° 0.1 mm 6 m/s 710 mmHg 52%
10:00 -1°C° 0.1 mm 7 m/s 710 mmHg 47%
11:00 0°C° 0.1 mm 7 m/s 710 mmHg 43%
12:00 0°C° 0 mm 7 m/s 710 mmHg 39%
13:00 +2°C° 0 mm 7 m/s 709 mmHg 35%
14:00 +1°C° 0 mm 8 m/s 709 mmHg 31%
15:00 +1°C° 0 mm 8 m/s 709 mmHg 32%
16:00 +2°C° 0 mm 7 m/s 709 mmHg 33%
17:00 +2°C° 0 mm 7 m/s 709 mmHg 34%
18:00 +1°C° 0 mm 6 m/s 709 mmHg 38%
19:00 +1°C° 0 mm 5 m/s 709 mmHg 41%
20:00 0°C° 0 mm 4 m/s 709 mmHg 45%
21:00 +1°C° 0 mm 3 m/s 709 mmHg 48%
22:00 0°C° 0 mm 3 m/s 709 mmHg 51%
23:00 +1°C° 0 mm 2 m/s 710 mmHg 54%

Depois de amanhã, 20 Abril, Terça-feira

Tempo Temperatura Precipitação Vento Pressão Humidade
00:00 -1°C° 0 mm 2 m/s 710 mmHg 56%
01:00 -1°C° 0 mm 2 m/s 710 mmHg 57%
02:00 -2°C° 0 mm 2 m/s 710 mmHg 59%
03:00 -2°C° 0 mm 2 m/s 710 mmHg 61%
04:00 -3°C° 0 mm 2 m/s 710 mmHg 63%
05:00 -3°C° 0 mm 2 m/s 710 mmHg 64%
06:00 -2°C° 0 mm 2 m/s 710 mmHg 60%
07:00 -2°C° 0 mm 3 m/s 710 mmHg 55%
08:00 -1°C° 0 mm 3 m/s 711 mmHg 51%
09:00 0°C° 0 mm 3 m/s 711 mmHg 47%
10:00 +1°C° 0 mm 3 m/s 711 mmHg 43%
11:00 +3°C° 0 mm 2 m/s 711 mmHg 39%
12:00 +4°C° 0 mm 2 m/s 710 mmHg 36%
13:00 +4°C° 0 mm 2 m/s 710 mmHg 33%
14:00 +5°C° 0 mm 2 m/s 710 mmHg 30%
15:00 +6°C° 0 mm 1 m/s 709 mmHg 30%
16:00 +7°C° 0 mm 1 m/s 709 mmHg 29%
17:00 +6°C° 0 mm 0 m/s 709 mmHg 28%
18:00 +6°C° 0 mm 1 m/s 709 mmHg 31%
19:00 +6°C° 0 mm 1 m/s 708 mmHg 34%
20:00 +4°C° 0 mm 2 m/s 708 mmHg 37%
21:00 +3°C° 0 mm 2 m/s 708 mmHg 39%
22:00 +2°C° 0 mm 3 m/s 708 mmHg 42%
23:00 +1°C° 0 mm 3 m/s 708 mmHg 45%

21 Abril, Quarta-feira

Tempo Temperatura Precipitação Vento Pressão Humidade
00:00 +1°C° 0 mm 3 m/s 708 mmHg 47%
01:00 0°C° 0 mm 3 m/s 707 mmHg 49%
02:00 0°C° 0 mm 3 m/s 707 mmHg 51%
03:00 0°C° 0 mm 3 m/s 707 mmHg 53%
04:00 -1°C° 0 mm 3 m/s 706 mmHg 54%
05:00 -1°C° 0 mm 3 m/s 706 mmHg 55%
06:00 0°C° 0 mm 4 m/s 706 mmHg 50%
07:00 +3°C° 0 mm 4 m/s 706 mmHg 45%
08:00 +3°C° 0 mm 5 m/s 706 mmHg 40%
09:00 +6°C° 0 mm 5 m/s 706 mmHg 36%
10:00 +8°C° 0 mm 5 m/s 705 mmHg 33%
11:00 +10°C° 0 mm 5 m/s 705 mmHg 29%
12:00 +12°C° 0 mm 5 m/s 704 mmHg 27%
13:00 +13°C° 0 mm 5 m/s 704 mmHg 25%
14:00 +14°C° 0 mm 5 m/s 703 mmHg 23%
15:00 +14°C° 0 mm 5 m/s 703 mmHg 23%
16:00 +14°C° 0 mm 5 m/s 702 mmHg 22%
17:00 +15°C° 0 mm 5 m/s 701 mmHg 22%
18:00 +13°C° 0 mm 5 m/s 701 mmHg 27%
19:00 +12°C° 0 mm 4 m/s 700 mmHg 31%
20:00 +10°C° 0 mm 4 m/s 700 mmHg 36%
21:00 +8°C° 0 mm 4 m/s 699 mmHg 38%
22:00 +8°C° 0 mm 4 m/s 699 mmHg 40%
23:00 +7°C° 0 mm 5 m/s 698 mmHg 43%

22 Abril, Quinta-feira

Tempo Temperatura Precipitação Vento Pressão Humidade
00:00 +6°C° 0 mm 4 m/s 698 mmHg 43%
01:00 +6°C° 0 mm 4 m/s 698 mmHg 43%
02:00 +5°C° 0 mm 4 m/s 697 mmHg 44%
03:00 +6°C° 0 mm 4 m/s 697 mmHg 45%
04:00 +6°C° 0 mm 4 m/s 697 mmHg 45%
05:00 +6°C° 0 mm 4 m/s 697 mmHg 46%
06:00 +5°C° 0 mm 5 m/s 697 mmHg 56%
07:00 +4°C° 0 mm 7 m/s 698 mmHg 67%
08:00 +4°C° 0 mm 8 m/s 698 mmHg 78%
09:00 +1°C° 1.4 mm 8 m/s 699 mmHg 83%
10:00 0°C° 1.4 mm 8 m/s 700 mmHg 89%
11:00 -2°C° 1.4 mm 7 m/s 701 mmHg 95%
12:00 -1°C° 0.5 mm 7 m/s 701 mmHg 87%
13:00 -1°C° 0.5 mm 7 m/s 702 mmHg 80%
14:00 0°C° 0.5 mm 7 m/s 702 mmHg 72%
15:00 0°C° 0 mm 7 m/s 702 mmHg 69%
16:00 0°C° 0 mm 7 m/s 702 mmHg 66%
17:00 0°C° 0 mm 7 m/s 703 mmHg 63%
18:00 -1°C° 0 mm 6 m/s 703 mmHg 64%
19:00 0°C° 0 mm 5 m/s 703 mmHg 65%
20:00 -1°C° 0 mm 5 m/s 703 mmHg 65%
21:00 -1°C° 0 mm 4 m/s 703 mmHg 68%
22:00 -1°C° 0 mm 3 m/s 703 mmHg 71%
23:00 -1°C° 0 mm 2 m/s 703 mmHg 73%

23 Abril, Sexta-feira

Tempo Temperatura Precipitação Vento Pressão Humidade
00:00 -2°C° 0 mm 2 m/s 704 mmHg 75%
01:00 -2°C° 0 mm 2 m/s 704 mmHg 77%
02:00 -3°C° 0 mm 2 m/s 704 mmHg 79%
03:00 -3°C° 0 mm 2 m/s 704 mmHg 79%
04:00 -3°C° 0 mm 2 m/s 703 mmHg 79%
05:00 -3°C° 0 mm 2 m/s 703 mmHg 79%
06:00 -2°C° 0 mm 2 m/s 704 mmHg 74%
07:00 -1°C° 0 mm 3 m/s 704 mmHg 68%
08:00 +1°C° 0 mm 3 m/s 704 mmHg 63%
09:00 +2°C° 0 mm 3 m/s 704 mmHg 57%
10:00 +3°C° 0 mm 4 m/s 704 mmHg 50%
11:00 +4°C° 0 mm 4 m/s 704 mmHg 44%
12:00 +3°C° 0.1 mm 5 m/s 703 mmHg 46%
13:00 +4°C° 0.1 mm 6 m/s 703 mmHg 49%
14:00 +4°C° 0.1 mm 7 m/s 703 mmHg 51%
15:00 +4°C° 0.2 mm 6 m/s 703 mmHg 49%
16:00 +4°C° 0.2 mm 6 m/s 703 mmHg 46%
17:00 +5°C° 0.2 mm 5 m/s 703 mmHg 43%
18:00 +4°C° 0 mm 4 m/s 703 mmHg 45%
19:00 +3°C° 0 mm 3 m/s 703 mmHg 47%
20:00 +3°C° 0 mm 2 m/s 703 mmHg 49%
21:00 +3°C° 0 mm 2 m/s 703 mmHg 50%
22:00 +3°C° 0 mm 1 m/s 703 mmHg 51%
23:00 +3°C° 0 mm 1 m/s 702 mmHg 51%
Mostrar mais